This is the latest recevied weather packets stored in our database for station/object KC3DGM. If no packets are shown the sender has not sent any weather packets the latest 10 day(s).
| Time | Temp. | Humidity | Pressure | Rain* | Wind** | Luminosity | Snow |
|---|---|---|---|---|---|---|---|
| 1778020426 | 14.44° C | 95% | 979.4 hPa | 0 mm | - | 18 W/m² | - |
| 1778020122 | 14.44° C | 95% | 979.5 hPa | 0 mm | - | 18 W/m² | - |
| 1778019819 | 14.44° C | 93% | 979.5 hPa | 0 mm | - | 6 W/m² | - |
| 1778019516 | 14.44° C | 93% | 979.7 hPa | 0 mm | - | 6 W/m² | - |
| 1778019213 | 14.44° C | 92% | 979.8 hPa | 1.27 mm | - | 8 W/m² | - |
| 1778018910 | 15° C | 91% | 979.5 hPa | 4.32 mm | - | 14 W/m² | - |
| 1778018607 | 15° C | 89% | 979.6 hPa | 7.87 mm | - | 30 W/m² | - |
| 1778018305 | 16.11° C | 85% | 979.9 hPa | 3.05 mm | - | 10 W/m² | - |
| 1778018002 | 16.67° C | 81% | 979.3 hPa | 0 mm | - | 7 W/m² | - |
| 1778017700 | 16.67° C | 79% | 979.1 hPa | 0 mm | - | 16 W/m² | - |
| 1778017398 | 16.67° C | 79% | 979 hPa | 0 mm | - | 25 W/m² | - |
| 1778017094 | 16.67° C | 78% | 978.7 hPa | 0 mm | - | 38 W/m² | - |
| 1778016792 | 16.67° C | 78% | 978.6 hPa | 0 mm | - | 15 W/m² | - |
| 1778016488 | 17.22° C | 78% | 978.8 hPa | 0 mm | - | 39 W/m² | - |
| 1778016185 | 17.22° C | 78% | 978.7 hPa | 0 mm | - | 75 W/m² | - |
| 1778015881 | 17.22° C | 77% | 978.9 hPa | 0 mm | - | 19 W/m² | - |
| 1778015579 | 17.22° C | 76% | 978.7 hPa | 0 mm | - | 20 W/m² | - |
| 1778015275 | 17.22° C | 77% | 978.7 hPa | 0 mm | - | 25 W/m² | - |
| 1778014972 | 17.22° C | 76% | 978.6 hPa | 0 mm | - | 28 W/m² | - |
| 1778014669 | 17.22° C | 76% | 978.9 hPa | 0 mm | - | 29 W/m² | - |
| 1778014368 | 17.78° C | 75% | 978.8 hPa | 0 mm | - | 23 W/m² | - |
| 1778014064 | 17.78° C | 74% | 978.8 hPa | 0 mm | - | 32 W/m² | - |
| 1778013762 | 17.78° C | 75% | 978.8 hPa | 0 mm | - | 52 W/m² | - |
| 1778013459 | 17.78° C | 74% | 979 hPa | 0 mm | - | 120 W/m² | - |
| 1778013156 | 17.78° C | 75% | 979.2 hPa | 0 mm | - | 79 W/m² | - |
* Rain latest hour (hover to see other rain measurements)
** Current wind speed in m/s (hover to see current wind gust speed)